Location: Rounton
(54.4000°N, 1.3500°W)
Time: 14:59:39
(UTC+01:00)

S-56A Canister/Altair - Pass Details

Date: 08 September 2024
Orbit: 636 x 2487 km, 38.9° (Epoch: 02 October)

Event Time Altitude Azimuth Distance (km) Brightness Sun altitude
Rises 22:20:03 0° 227° (SW) 4,012 11.2 -21.4°
Reaches altitude 10° 22:22:53 10° 216° (SW) 3,295 10.6 -21.7°
Enters shadow 22:29:20 29° 165° (SSE) 2,628 9.7 -22.3°
Maximum altitude 22:29:56 29° 160° (SSE) 2,660 - -22.4°
Drops below altitude 10° 22:39:29 10° 107° (ESE) 4,542 - -23.3°
Sets 22:44:12 0° 98° (E) 5,795 - -23.7°
